Regional Weather Roundup
Issued by NWS Jackson, KY

Home | Current Version | Previous Version | Graphics & Text | Print | Product List | Glossary On
Versions: 1 2 3 4 5 6 7 8 9 10 11 12 13 14 15 16 17 18 19 20 21 22 23 24 25 26 27 28 29 30 31 32 33 34 35 36 37 38 39 40 41 42 43 44 45 46 47 48 49 50
000
ASUS43 KJKL 270310
RWRJKL

EAST KENTUCKY HOURLY WEATHER ROUNDUP
NATIONAL WEATHER SERVICE JACKSON KY
1100 PM EDT SUN MAR 26 2017

NOTE: "FAIR" INDICATES FEW OR NO CLOUDS BELOW 12,000 FEET WITH
NO SIGNIFICANT WEATHER AND/OR OBSTRUCTIONS TO VISIBILITY.

* THESE REPORTS ARE NOT UNDER NWS QUALITY CONTROL AND MAY NOT
  REPORT WEATHER SUCH AS PRECIPITATION AND FOG.

KYZ079-080-083-085-087-088-110-112-115-119-120-270400
...EASTERN KENTUCKY...

CITY           SKY/WX    TMP DP  RH WIND       PRES   REMARKS
JACKSON        CLOUDY    59  55  87 SW5       30.02S
LONDON         CLOUDY    61  55  81 S5        30.03S
SOMERSET*      CLOUDY    63  50  63 SW5       30.04S
MONTICELLO*    CLOUDY    63  53  70 SW14      30.04S
WILLIAMSBURG*  CLOUDY    63  57  82 SW5       30.04F
MIDDLESBORO*   PTCLDY    56  54  92 CALM      30.06S
HARLAN APT*    CLOUDY    64  50  59 W5        30.06S
PIKE CO APT*   LGT RAIN  58  58 100 CALM      30.04S
BIG SANDY APT* LGT RAIN  60  58  90 SW13G21   30.03S
MOREHEAD APT*  CLOUDY    57  55  94 S5        30.01S
ASHLAND*       CLOUDY    55  55 100 CALM      29.97F
$$

KYZ035-036-041-042-044-050-067-078-099-270400
...CENTRAL KENTUCKY...

CITY           SKY/WX    TMP DP  RH WIND       PRES   REMARKS
MT STERLING*   CLOUDY    57  55  94 CALM      30.01F
FLEMING/MASON* CLOUDY    57  56  95 CALM      30.00S
DANVILLE*      CLOUDY    59  52  77 W3        30.01S
LEXINGTON      LGT RAIN  61  55  81 S8        29.99S
FRANKFORT      CLEAR     60  53  77 W3        29.98R
LOUISVILLE     PTCLDY    59  49  69 W7        29.99R
LEBANON*         N/A     61  55  82 W5        30.01R
GLASGOW*       CLOUDY    61  54  77 CALM      30.00S
BOWLING GREEN  CLOUDY    63  53  70 CALM      30.00R
$$

KYZ091>093-OHZ055-061-077-WVZ005-015-034-035-042-270400
...SOUTHERN OHIO/WEST VIRGINIA...

CITY           SKY/WX    TMP DP  RH WIND       PRES   REMARKS
COVINGTON      PTCLDY    55  54  96 SW5       29.97R
COLUMBUS       LGT RAIN  56  55  97 S5        29.95S
DAYTON         MOCLDY    55  53  93 SW9       29.95S
WILMINGTON     MOCLDY    54  54 100 SW5       29.96R
HUNTINGTON     CLOUDY    60  56  86 S6        29.99F
CHARLESTON     TSTM      58  56  93 S7        30.02R FOG
PINEVILLE*     CLOUDY    56  53  91 MISG      30.10F
BECKLEY        LGT RAIN  56  52  86 S9        30.08S
BLUEFIELD      CLEAR     57  50  77 S8G18     30.11S
LOGAN CO APT*  FOG       59  57  94 CALM      30.04R VSB<1/4
$$

VAZ002-007-008-TNZ017-027-036-066-071-270400
...SOUTHWEST VIRGINIA/EAST TENNESSEE...

CITY           SKY/WX    TMP DP  RH WIND       PRES   REMARKS
WISE*          MOCLDY    61  50  67 S8        30.10S
JONESVILLE*    MOCLDY    59  55  88 CALM      30.08S
ABINGDON*      MOCLDY    63  51  67 CALM      30.09S
BRISTOL        CLOUDY    61  53  75 CALM      30.08R
MORRISTOWN*    CLOUDY    63  55  77 CALM      30.06S
SEVIERVILLE*   CLOUDY    63  52  67 CALM      30.05S
KNOXVILLE      CLEAR     63  53  70 SW9       30.05R
LAFOLLETTE*    PTCLDY    64  48  55 CALM      30.08S
OAK RIDGE      CLEAR     65  51  60 VRB3      30.06S
CROSSVILLE     PTCLDY    58  50  75 CALM      30.08S
NASHVILLE      PTCLDY    63  55  75 S5        30.01S
$$

...KEY TO REMARKS...
VSB - VISIBILITY IN MILES
WCI - WIND CHILL INDEX
HX  - HEAT INDEX

$$



USA.gov is the U.S. government's official web portal to all federal, state and local government web resources and services.